Portada
METAR-TAF:

METAR-TAF

Aeroports :

Iowa County Airport

Mineral Point, Wisconsin, Estats Units d'Amèrica

latitud: 42-53-07N, longitud: 090-13-55W, altitud: 359 m

Observació

L'informe es va fer fa 24 minuts, a les 10:15 UTC
Vent calma
Temperatura 2°C
Humitat 87%
Pressió 1016 hPa
Visibilitat: 16.1 km
Cel clar

METAR: KMRJ 221015Z AUTO 00000KT 10SM CLR 02/00 A3001 RMK AO2

Hora: 05:39 (10:39 UTC)


TAF: manca

Observacions i pronòstics meteorològics de més de 4000 aeroports (METAR i TAF).

Les estacions disponibles són els punts grocs i vermells al mapa.

Posi el ratolí al punt desitjat per veure el nom de l'estació.

Feu clic per veure les observacions i els pronòstics meteorològics.

Per canviar el mapa: feu clic els botons verds amb una creu de color negre per apropar; al botó verd amb un guió per allunyar la imatge; o en les fletxes verdes per a mapes adjacents.


METAR-TAF: